This demonstration page uses our WeatherBlox Daily Observations layout. Learn more.

Left ArrowRight Arrow

Hourly Observations for March 2, 2015

Temp ( °F °C ) Dew Point ( °F °C ) Humidity (%) Winds ( mph kmh ) Pressure ( in mb ) Visibility ( mi km ) Precip ( " mm )
12:53 am 00:53 Clear 18 -7.8 12 -11.1 77 77 E 6 9 29.96 1015 10 16 N/A
1:53 am 01:53 Clear 16 -8.9 10 -12.2 77 77 N N/A 29.95 1014 10 16 N/A
2:53 am 02:53 Clear 13 -10.6 10 -12.2 88 88 N N/A 29.94 1014 10 16 N/A
3:53 am 03:53 Partly Cloudy 12 -11.1 9 -12.8 87 87 N N/A 29.91 1013 10 16 N/A
4:53 am 04:53 Clear 9 -12.8 7 -13.9 92 92 W 5 7 29.91 1013 10 16 N/A
5:53 am 05:53 Clear 10 -12.2 7 -13.9 87 87 WNW 3 6 29.92 1013 10 16 N/A
6:53 am 06:53 Mostly Clear 14 -10 11 -11.7 88 88 SW 12 19 29.92 1013 10 16 N/A
7:53 am 07:53 Sunny 21 -6.1 15 -9.4 78 78 SW 17 28 29.91 1013 10 16 N/A
8:53 am 08:53 Mostly Sunny 27 -2.8 18 -7.8 69 69 WSW 15 24 29.93 1014 10 16 N/A
9:53 am 09:53 Mostly Sunny 32 undefined 21 -6.1 64 64 NNW 17 28 29.93 1014 10 16 N/A
10:53 am 10:53 Cloudy 31 -0.6 20 -6.7 64 64 NW 20 31 29.97 1015 10 16 N/A
11:12 am 11:12 Cloudy 32 undefined 19 -7 60 60 NNW 22 35 29.97 1015 10 16 N/A
11:53 am 11:53 Cloudy 32 undefined 18 -7.8 56 56 NW 21 33 30.00 1016 10 16 N/A
12:53 pm 12:53 Cloudy 31 -0.6 17 -8.3 56 56 NNW 17 28 30.01 1016 10 16 N/A
1:53 pm 13:53 Cloudy 30 -1.1 13 -10.6 49 49 N 22 35 30.04 1017 10 16 N/A
2:53 pm 14:53 Cloudy with Light Snow 28 -2.2 14 -10 56 56 N 16 26 30.07 1018 7 11 N/A
3:06 pm 15:06 Windy with Snow Likely 25 -4 18 -8 74 74 N 23 37 30.12 1020 2 3 N/A
3:14 pm 15:14 Windy with Snow Likely 25 -4 18 -8 74 74 N 21 33 30.12 1020 1 2 N/A
3:17 pm 15:17 Cloudy with Light Snow 25 -3.9 17 -8.3 72 72 N 18 30 30.12 1020 2 3 N/A
3:20 pm 15:20 Windy with Snow Likely 27 -3 16 -9 64 64 N 22 35 30.12 1020 4 6 N/A
3:53 pm 15:53 Cloudy 26 -3.3 12 -11.1 55 55 N 20 31 30.13 1020 10 16 N/A
4:53 pm 16:53 Cloudy with Light Snow 23 -5 15 -9.4 72 72 N 15 24 30.16 1021 4 6 N/A
5:05 pm 17:05 Cloudy with Light Snow 22 -5.6 16 -8.9 78 78 N 15 24 30.21 1023 2 3 N/A
5:19 pm 17:19 Cloudy 23 -5 15 -9.4 72 72 N 10 17 30.21 1023 9 14 N/A
5:49 pm 17:49 Cloudy 21 -6 12 -11 68 68 N 14 22 30.21 1023 9 14 N/A
5:53 pm 17:53 Cloudy with Light Snow 22 -5.6 14 -10 71 71 NNE 13 20 30.19 1022 5 8 N/A
6:53 pm 18:53 Cloudy 22 -5.6 13 -10.6 68 68 N 8 13 30.21 1023 10 16 N/A
7:53 pm 19:53 Cloudy 20 -6.7 8 -13.3 60 60 N 20 31 30.22 1023 10 16 N/A
8:53 pm 20:53 Cloudy 17 -8.3 4 -15.6 56 56 N 18 30 30.24 1024 10 16 N/A
9:53 pm 21:53 Mostly Cloudy 16 -8.9 3 -16.1 56 56 N 14 22 30.26 1025 10 16 N/A
10:53 pm 22:53 Cloudy 13 -10.6 1 -17.2 59 59 N 9 15 30.31 1026 10 16 N/A
11:53 pm 23:53 Cloudy 11 -11.7 N/A 61 61 N 8 13 30.34 1027 10 16 N/A

Powered by AerisWeather